Location: Biharia
(46.4333°N, 22.8000°E)
Time: 10:05:29
(UTC+00:00)

Daily predictions for brighter satellites

Satellite Brightness Start Highest point End
(mag) Time Altitude Azimuth Time Altitude Azimuth Time Altitude Azimuth
Cosmos 2227 Rocket 2.2 16:01:51 10° NNW 16:07:34 83° ENE 16:13:14 10° SSE
Cosmos 1908 4.5 16:07:20 10° SE 16:10:20 21° E 16:13:20 10° NE
Timation 2 Rocket 4.2 16:04:12 10° NNW 16:11:07 70° ENE 16:17:51 10° SE
Cosmos 494 Rocket 4.2 16:07:23 10° NNW 16:12:28 49° ENE 16:17:29 10° SE
CZ-2C R/B 3.2 16:09:17 10° NNE 16:14:31 38° E 16:19:40 10° SSE
Cosmos 1356 3.4 16:11:14 10° N 16:14:35 54° ENE 16:17:53 10° SSE
USA 215 4.1 16:09:20 10° NE 16:15:30 46° NNW 16:21:42 10° W
Landsat 5 4.0 16:13:03 10° NNE 16:17:09 40° E 16:21:19 10° S
SKYMED 2 3.9 16:15:16 10° NNE 16:19:28 45° E 16:23:38 10° S
Aureole 2 4.2 16:18:12 10° NNW 16:21:09 78° WSW 16:24:14 10° SSE
Okean 2 Rocket 4.0 16:17:51 10° SSW 16:22:11 53° WNW 16:26:35 10° N
Cosmos 1726 3.1 16:20:16 10° SSW 16:23:47 49° WNW 16:27:19 10° N
Cosmos 1470 3.3 16:20:55 10° SSW 16:24:51 66° W 16:28:50 10° N
Okean O Rocket 1.6 16:20:42 10° SSE 16:24:57 61° ENE 16:29:16 10° N
Cosmos 2084 Rocket 3.4 16:21:48 10° SW 16:25:39 73° NW 16:29:34 10° NE
SL-19 R/B 4.3 16:21:46 10° NNE 16:27:39 80° ESE 16:33:14 10° SSW
BREEZE-M DEB (TANK) 4.0 16:19:59 10° W 16:29:16 62° N 16:32:05 13° ENE
Cosmos 1758 3.2 16:27:20 10° S 16:31:19 82° E 16:35:19 10° N
YAOGAN 1 3.3 16:28:30 10° SE 16:32:20 32° ENE 16:36:12 10° N
Cosmos 1703 3.9 16:29:03 10° N 16:32:39 33° ENE 16:36:12 10° SE
Cosmos 2082 3.7 16:27:03 10° NNW 16:32:41 68° ENE 16:38:16 10° SE
CZ-4 R/B 2.2 16:29:14 10° SE 16:32:42 30° ENE 16:36:16 10° N
Okean-O 3.9 16:30:25 10° ESE 16:33:44 21° ENE 16:37:04 10° NNE
Cosmos 1727 Rocket 4.0 16:29:26 10° N 16:35:43 81° E 16:41:54 10° S
Cosmos 1455 Rocket 3.8 16:32:45 10° SSE 16:36:34 30° E 16:40:25 10° NNE
Spot 2 4.1 16:35:32 10° SE 16:39:26 49° ENE 16:43:31 10° N
Cosmos 2150 Rocket 4.0 16:34:59 10° S 16:40:23 69° ESE 16:45:46 10° NNE
Meteor 1-21 Rocket 4.4 16:35:14 10° N 16:41:00 58° ENE 16:46:47 10° SSE
Cosmos 1953 2.6 16:38:14 10° SSE 16:42:04 43° E 16:45:56 10° NNE
H-2A R/B 3.0 16:39:25 10° NE 16:42:46 24° E 16:46:07 10° SSE
ATLAS 3B R/B 2.7 16:39:51 10° SW 16:46:23 86° NW 16:53:17 10° NE
H-2A R/B 2.6 16:45:42 10° S 16:50:58 65° WSW 16:56:24 10° NNW
CZ-4B R/B 4.0 16:53:19 10° S 16:58:51 57° W 17:04:27 10° NNW
Lacrosse 4 Rocket 3.5 16:57:32 10° N 16:59:20 12° NE 16:59:46 12° NE
Okean 1 Rocket 4.0 16:57:42 10° SSW 17:01:54 50° WNW 17:06:09 10° N
Cosmos 405 Rocket 2.8 16:58:40 10° N 17:02:31 55° ENE 17:06:26 10° SSE
ATLAS 5 CENTAUR R/B 1.9 16:59:04 10° S 17:02:37 35° ESE 17:04:05 27° ENE
COSMO-SKYMED 1 3.3 17:03:20 10° N 17:07:37 57° WNW 17:11:51 10° SSW
Feng Yun 1-1 Rocket 4.3 17:04:24 10° SSE 17:09:54 86° WSW 17:15:35 10° NNW
Cosmos 2369 3.7 17:04:24 10° SSW 17:10:04 85° WNW 17:15:48 10° NNE
Cosmos 1605 Rocket 4.5 17:07:13 10° SSE 17:12:48 36° E 17:18:28 10° NNE
IRS-1C Rocket 4.0 17:10:36 10° SSE 17:15:47 65° ENE 17:21:01 10° N
CZ-4C R/B 4.1 17:16:19 10° N 17:19:38 44° WNW 17:22:51 10° SW
HJ-1C 3.1 17:17:52 22° SSE 17:19:51 84° ENE 17:23:07 10° N
H-2A R/B 3.0 17:16:37 10° S 17:20:59 64° WSW 17:25:16 10° NNW
Cosmos 1892 Rocket 3.9 17:17:08 10° NNW 17:21:36 70° W 17:26:00 10° S
Cosmos 1174 3.6 17:18:33 10° SW 17:21:48 59° NW 17:23:06 29° NNE
SL-08 RB Rocket 3.9 17:17:53 10° S 17:22:23 71° WSW 17:26:58 10° NNW
Cosmos 489 Rocket 4.4 17:17:31 10° NNW 17:23:45 74° ENE 17:29:10 14° SSE
Cosmos 1980 Rocket 2.2 17:18:44 10° SSW 17:24:24 86° WNW 17:30:08 10° NNE
Cosmos 389 Rocket 4.2 17:22:24 10° SW 17:25:30 33° WNW 17:28:38 10° N
Cosmos 2263 Rocket 2.0 17:22:10 10° NNW 17:27:45 74° ENE 17:31:01 25° SE
CSL-04 Debris 4.1 17:26:57 19° SSE 17:30:47 64° ENE 17:36:08 10° N
Cosmos 1269 Rocket 3.9 17:25:44 10° NNW 17:31:03 75° ENE 17:34:01 27° SSE
ARGOS 4.3 17:30:18 10° S 17:35:24 44° W 17:40:35 10° NNW
X-37B 1.4 17:33:20 10° WSW 17:35:50 44° SSW 17:35:50 44° SSW
Cosmos 724 4.2 17:35:38 10° NW 17:41:38 79° NE 17:43:53 40° SE
Cosmos 1697 Rocket 4.2 17:38:11 10° WSW 17:43:23 36° NW 17:48:36 10° NNE
Cosmos 1626 Rocket 3.3 17:46:40 10° N 17:51:01 83° E 17:51:03 82° E
CSL-04 Rocket 3.6 17:48:32 28° SSE 17:51:36 85° ENE 17:57:12 10° NNW
Cosmos 371 Rocket 3.9 17:46:52 10° S 17:50:04 39° SSE 17:50:04 39° SSE
Iridium 4 Rocket 3.9 17:47:51 10° NNW 17:52:07 53° W 17:56:40 10° SSW
MetOp-A 4.1 17:49:39 19° S 17:53:38 81° WSW 17:59:02 10° NNW
Cosmos 2278 4.0 17:48:15 10° SW 17:53:53 68° WNW 17:59:35 10° NNE
CZ-2C R/B 4.3 17:49:40 10° N 17:54:44 35° WNW 17:59:44 10° SW
USA 215 4.3 17:54:41 24° NE 17:57:40 35° N 18:03:29 10° WNW
Cosmos 1934 Rocket 4.2 17:52:02 10° SSW 17:58:09 69° W 18:04:14 10° N
Gbstr 26 Del rocket 4.4 17:51:09 10° WNW 17:58:34 84° SSW 18:01:28 44° SE
Ariane Rocket 4.5 18:00:53 24° NNE 18:00:53 24° NNE 18:03:22 10° N
Cosmos 2344 4.3 17:52:26 10° NW 18:01:15 64° NE 18:05:54 39° ESE
Meteor 1-11 4.4 17:57:32 10° NNW 18:03:07 72° W 18:06:55 21° S
Cosmos 1844 Rocket 3.6 17:58:34 10° NNW 18:02:40 32° NNE 18:02:40 32° NNE
Cosmos 2278 Rocket 4.5 18:04:27 10° NNE 18:04:47 10° NNE 18:04:47 10° NNE
CZ-4 R/B 3.6 18:04:27 10° SSW 18:07:42 24° W 18:11:01 10° NW
Okean-O 3.6 18:07:42 25° SSW 18:09:55 45° W 18:14:12 10° NNW
SL-16 R/B 3.1 18:05:35 10° SSW 18:08:50 35° S 18:08:50 35° S
H-2A R/B 3.6 18:15:06 10° N 18:18:47 33° WNW 18:22:29 10° SW
Resurs 01 Rocket 4.2 18:26:21 12° N 18:26:21 12° N 18:26:41 10° N
ATLAS 3B R/B 4.3 18:32:24 10° W 18:38:04 28° NNW 18:43:19 12° NNE
Lacrosse 4 Rocket 3.6 18:34:33 10° NNW 18:36:03 21° NNW 18:36:03 21° NNW
Cosmos 839 Rocket 4.2 18:35:47 10° NW 18:43:32 77° WSW 18:43:48 75° SW
ATLAS 5 CENTAUR R/B 3.6 18:43:37 10° W 18:45:39 23° WNW 18:45:39 23° WNW
CENTAUR R/B 4.4 18:59:13 10° NW 19:05:12 25° NNE 19:06:08 24° NNE
Cosmos 2263 Rocket 4.4 19:07:24 10° WNW 19:11:01 18° W 19:12:46 15° WSW
USA 215 4.4 19:42:02 36° NNW 19:42:02 36° NNW 19:46:06 10° NW
